Regional Weather Roundup
Issued by NWS

Home | Current Version | Previous Version | Text Only | Print | Product List | Glossary Off
Versions: 1 2 3 4 5 6 7 8 9 10 11 12 13 14 15 16 17 18 19 20 21 22 23 24 25 26 27 28 29 30 31 32 33 34 35 36 37 38 39 40 41 42 43 44 45 46 47 48 49 50

852
ASUS45 KCYS 130810
RWRWY

WYOMING REGIONAL WEATHER ROUNDUP
NATIONAL WEATHER SERVICE CHEYENNE WY
100 AM MST WED DEC 13 2017

NOTE:  "FAIR" INDICATES FEW OR NO CLOUDS BELOW 12,000 FEET
WITH NO SIGNIFICANT WEATHER AND/OR OBSTRUCTIONS TO VISIBILITY.

WYZ001-130900-
YELLOWSTONE NATIONAL PARK

CITY           SKY/WX    TMP DP  RH WIND       PRES   REMARKS
LK YELLOWSTONE   N/A     15  12  88 CALM      30.33S
W YELLOWSTONE  NOT AVBL

$$
WYZ002>013-054>058-071-098>099-130900-
NORTHERN WYOMING

CITY           SKY/WX    TMP DP  RH WIND       PRES   REMARKS
JACKSON        FAIR      17  12  80 NE3       30.32F
CODY           FAIR      43   6  21 NE13      30.18R
GREYBULL       FAIR      24  17  74 SW8       30.15R WCI  15
WORLAND        FAIR      24  20  84 S9        30.15R WCI  14
SHERIDAN       FAIR      37  13  37 W12       30.14S WCI  29
BUFFALO        FAIR      43   5  20 N21G29    30.10S
GILLETTE       FAIR      39   9  29 W15       30.07F WCI  31
HULETT         FAIR      43  19  39 NW10G20   30.03S
NEWCASTLE      FAIR      37  12  35 NW12      30.02R WCI  30

$$
WYZ014>020-022>026-101>103-130900-
CENTRAL WYOMING

CITY           SKY/WX    TMP DP  RH WIND       PRES   REMARKS
BIG PINEY      FAIR      19   1  45 W7        30.27F WCI  10
PINEDALE       FAIR      18   5  57 W6        30.27S WCI   9
DUBOIS         FAIR      34  -2  21 W7        30.23S WCI  28
LANDER         FAIR      31  20  63 W8        30.16R WCI  23
RIVERTON       CLOUDY    31  20  63 W7        30.17R WCI  24
CASPER         CLOUDY    36  20  52 W6        30.15R WCI  31
DOUGLAS        FAIR      39  19  44 NW10      30.10R WCI  32

$$
WYZ021-027>030-104>119-130900-
SOUTHERN WYOMING

CITY           SKY/WX    TMP DP  RH WIND       PRES   REMARKS
EVANSTON       FAIR      29  12  49 SW13      30.30F WCI  19
FORT BRIDGER   FAIR      35   2  25 W8        30.30F WCI  28
ROCK SPRINGS   FAIR      32   3  29 W13       30.25F WCI  22
DIXON          FAIR      14   8  77 SE7       30.28S WCI   4
RAWLINS        FAIR      36   7  29 W21       30.18F WCI  25
SARATOGA       FAIR      27  12  54 NE6       30.20F WCI  20
LARAMIE        FAIR      31   4  31 W9        30.13F WCI  23
CHEYENNE       FAIR      42   4  20 W12       30.07F
TORRINGTON     FAIR      38  16  40 NW10      30.04R WCI  31
PINE BLUFFS    FAIR      39   5  24 MISG      30.05F

$$




USA.gov is the U.S. government's official web portal to all federal, state and local government web resources and services.